Date,TemperatureHighF,TemperatureAvgF,TemperatureLowF,DewpointHighF,DewpointAvgF,DewpointLowF,HumidityHigh,HumidityAvg,HumidityLow,PressureMaxIn,PressureMinIn,WindSpeedMaxMPH,WindSpeedAvgMPH,GustSpeedMaxMPH,PrecipitationSumIn
2013-1-1,29.1,18.6,7.0,21.3,12.6,3.7,95,78,50,31.18,30.22,14,9,18,0.00
2013-1-2,23.0,13.3,2.1,15.9,8.7,-0.3,90,82,67,31.51,30.66,18,10,24,0.00
2013-1-3,34.0,24.0,14.5,28.1,20.2,12.4,94,85,67,31.44,31.03,16,7,22,0.00
2013-1-4,32.0,20.2,8.8,25.9,16.8,6.5,94,87,75,31.66,30.81,17,9,24,0.00
2013-1-5,35.6,31.1,16.2,33.0,27.8,15.0,98,88,63,31.47,30.92,23,14,30,0.00
2013-1-6,34.2,26.2,12.4,33.1,23.4,11.4,98,89,76,31.67,30.60,22,10,30,0.00
2013-1-7,35.8,23.2,9.5,29.4,20.7,8.4,97,91,73,31.64,30.75,27,13,36,0.00
2013-1-8,42.6,31.3,23.0,35.6,28.8,20.6,96,90,75,31.28,30.72,20,14,25,0.00
2013-1-9,51.8,41.4,32.7,36.7,33.4,25.2,94,76,39,31.17,30.40,26,12,36,0.00
2013-1-10,112.8,39.1,34.2,43.3,15.5,-19.4,94,55,10,29.92,29.06,19,12,30,0.34
2013-1-11,54.5,49.1,45.0,52.9,31.4,-8.3,99,67,10,29.65,29.26,27,14,40,0.34
2013-1-12,53.4,43.4,31.1,51.3,40.6,-37.0,97,90,10,29.59,29.38,105,12,105,0.05
2013-1-13,31.5,23.3,13.5,29.9,21.2,10.2,98,92,84,30.43,29.60,0,0,6,0.00
2013-1-14,30.6,17.5,12.0,18.8,13.3,9.7,92,84,61,30.69,29.99,0,0,0,0.00
2013-1-15,14.9,14.7,14.2,13.4,13.3,12.6,94,94,92,30.69,30.54,0,0,0,0.00
2013-1-16,37.6,27.6,14.0,29.7,23.3,13.1,96,85,66,30.28,29.52,16,4,23,0.02
2013-1-17,33.6,22.4,16.2,31.0,16.7,14.0,94,79,55,30.46,29.44,27,6,31,0.00
2013-1-18,42.3,29.6,15.1,31.0,24.5,13.2,94,82,65,30.62,29.83,34,20,49,0.00
2013-1-19,51.8,41.2,30.4,40.2,34.3,17.8,88,77,56,30.06,29.28,28,17,39,0.00
2013-1-20,30.0,19.3,14.4,18.1,9.3,5.8,78,65,53,30.32,29.74,27,13,37,0.00
2013-1-21,15.6,10.4,-4.5,10.6,0.4,-15.1,87,65,40,30.76,29.76,23,12,34,0.00
2013-1-22,14.7,7.4,-7.2,1.4,-1.9,-37.3,89,67,10,30.90,29.91,21,6,22,0.00
2013-1-23,24.1,16.7,11.3,15.0,7.0,0.9,80,65,54,30.70,30.32,31,8,40,0.00
2013-1-24,25.9,15.7,6.3,8.9,3.2,-2.2,72,58,38,30.90,30.38,22,11,33,0.00
2013-1-25,35.8,23.9,18.0,21.8,16.6,8.5,95,74,54,30.64,29.95,21,9,30,0.00
2013-1-26,37.4,22.6,9.5,20.6,12.0,7.0,91,67,29,30.67,29.51,14,5,17,0.00
2013-1-27,42.1,30.1,23.4,32.3,21.6,-14.7,95,76,10,30.53,29.96,22,12,92,0.11
2013-1-28,44.1,42.0,32.7,-9.0,-10.6,-17.8,10,10,10,29.96,29.48,25,21,29,0.02
2013-1-29,42.3,41.8,0.0,-10.4,-10.4,-10.4,10,10,10,29.92,29.19,21,21,27,0.02